Simultaneous Nadir Overpasses (SNOs) Predictions

Prediction of SNOs between GOES-14 and AQUA Satellite Orbit:

Table of predicted SNOs for the next 14.0 days since TLE Epoch: 7/6/2024
Index Date Time (GOES-14) GOES-14 Lat,Lon AQUA Lat,Lon Distance(km) Time Diff (sec)
1 07/06/2024 09:19:28 -0.24,-108.52 -0.64,-106.65 212.60 80
2 07/06/2024 21:37:02 0.27,-108.47 -0.42,-111.54 349.85 80
3 07/08/2024 21:22:59 0.26,-108.47 0.45,-107.46 114.79 80
4 07/09/2024 09:40:25 -0.29,-108.52 0.51,-112.33 433.45 80
5 07/11/2024 09:26:21 -0.28,-108.51 -0.35,-108.24 31.74 80
6 07/13/2024 09:09:36 -0.27,-108.51 -1.20,-104.14 497.21 80
7 07/13/2024 21:27:10 0.29,-108.46 0.18,-109.04 65.24 80
8 07/15/2024 21:13:04 0.29,-108.46 1.03,-104.93 400.48 80
9 07/16/2024 09:30:29 -0.32,-108.51 -0.02,-109.80 147.11 80
10 07/18/2024 09:16:23 -0.32,-108.50 -0.92,-105.70 318.12 80
11 07/18/2024 21:33:56 0.34,-108.44 -0.12,-110.59 245.13 80
